Погода в Комсомольце

Россия / Ставропольский край     44°01′01″N   43°33′52″E
темп.,
°C
ветер,
м/с
пор.,
м/с
влажн.,
%
обл.,
%
осадки,
мм/ч
давл.,
гПа
погр.,
м
8 мая, сб
сб800:00+13сз117299 0.0 101811
03:00+11ююз11785 0.0 101810
06:00+12ю22795 0.0 101756
09:00+18юв4759100 0.0 1016663
12:00+21вюв5647100 0.0 10141336
15:00+21вюв5552100 0.0 10131300
18:00+19юв3764100 0.0 1012192
21:00+14ююв337443 0.0 101334
9 мая, вс
вс900:00+12юв2377100 0.0 101133
03:00+11ююв1185100 0.0 100910
06:00+13сз3479100 0.0 1009124
09:00+17ссз676612 0.0 1009780
12:00+19ссз7761100 0.0 10091624
15:00+10зсз111784100 1.4 1013713
18:00+6зсз132091100 2.5 10171062
21:00+6зсз101691100 8.9 1021968
10 мая, пн
пн1000:00+6зсз91584100 0.4 1022890
03:00+7зсз81472100 0.4 1022784
06:00+7зсз71367100 0.0 1022872
09:00+10зсз9115327 0.0 10211805
12:00+12сз8104839 0.0 10202015
15:00+13зсз5746100 0.1 10182244
18:00+8ююз4583100 2.4 1020153
21:00+8з2281100 3.6 102132
11 мая, вт
вт1100:00+7ю4590100 0.4 1020210
03:00+6ю369137 0.4 1020231
06:00+6ююв3690100 0.0 1019252
09:00+9юв6973100 0.0 10191122
12:00+11вюв6762100 0.1 10181519
15:00+14вюв455291 0.1 10171633
18:00+13всв34685 0.0 1018306
21:00+9с117733 0.0 101810
12 мая, ср
ср1200:00+8вюв3583100 0.0 101883
03:00+6ююв22895 0.0 101828
06:00+7вюв258740 0.0 1019164
09:00+13вюв676540 0.0 1018814
12:00+16вюв5659100 0.0 10171299
15:00+18вюв455657 0.0 10161493
18:00+17вюв35680 0.0 1016206
21:00+12ююв22790 0.0 101614